Location: Goheenville
(40.9070°N, 79.3720°W)
Time: 15:16:40
(UTC-04:00)

Cosmos 1727 Rocket - Visible Passes

Search period start: 04 May 2016 00:00
Search period end: 14 May 2016 00:00
Orbit: 961 x 996 km, 82.9° (Epoch: 03 May)

Date Brightness Start Highest point End Pass type
(mag) Time Alt. Az. Time Alt. Az. Time Alt. Az.
04 May 4.7 20:37:49 10° SSE 20:43:11 32° E 20:48:36 10° NNE visible
04 May 5.4 22:22:50 10° SW 22:28:29 37° WNW 22:34:14 10° N visible
05 May 4.1 21:03:15 10° S 21:09:18 60° E 21:15:27 10° NNE visible
05 May 6.3 22:50:44 10° WSW 22:55:14 21° WNW 22:59:47 10° NNW visible
06 May 4.2 21:29:26 10° SSW 21:35:37 75° W 21:41:54 10° N visible
06 May 6.9 23:20:48 10° WNW 23:22:12 11° WNW 23:23:36 10° NW visible
07 May 5.3 21:56:20 10° SW 22:02:07 41° WNW 22:08:00 10° N visible
08 May 6.3 22:24:03 10° WSW 22:28:49 23° WNW 22:33:39 10° NNW visible
09 May 4.1 21:03:05 10° S 21:09:17 83° W 21:15:35 10° N visible
09 May 6.8 22:53:23 10° W 22:55:45 12° WNW 22:58:09 10° NW visible
10 May 5.2 21:29:50 10° SSW 21:35:45 46° WNW 21:41:45 10° N visible
11 May 6.2 21:57:24 10° SW 22:02:26 25° WNW 22:07:31 10° NNW visible
12 May 6.8 22:26:17 10° W 22:29:19 14° WNW 22:32:22 10° NW visible
13 May 5.0 21:03:23 10° SSW 21:09:24 51° WNW 21:15:30 10° N visible
